Tracking 29932 objects as of 3-Dec-2024
HD Live streaming from Space Station
objects crossing your sky now

STARLINK-30297

Track STARLINK-30297 now!
10-day predictions
STARLINK-30297 is classified as:


NORAD ID: 57682
Int'l Code: 2023-124V
Perigee: 481.6 km
Apogee: 483.3 km
Inclination: 53.2 °
Period: 94.1 minutes
Semi major axis: 6853 km
RCS: Unknown
Launch date: August 22, 2023
Source: United States (US)
Launch site: AIR FORCE WESTERN TEST RANGE (AFWTR)
Your satellite tracking list
Your tracking list is empty




NASA's NSSDC Master Catalog

Two Line Element Set (TLE):
1 57682U 23124V   24337.91667824 -.00005107  00000-0 -16049-3 0  9990
2 57682  53.1571 191.9202 0001249 100.8675 342.8024 15.30182539  5880
Source of the keplerian elements: AFSPC